Time,TemperatureF,DewpointF,PressureIn,WindDirection,WindDirectionDegrees,WindSpeedMPH,WindSpeedGustMPH,Humidity,HourlyPrecipIn,Conditions,Clouds,dailyrainin,SoftwareType,DateUTC
2013-05-20 00:02:00,60.0,60.0,-100.00,SE,135,1.0,6.0,99,0.00,,,-99.99,,2013-05-20 05:02:00,
2013-05-20 00:12:00,60.0,60.0,-100.00,South,185,4.0,9.0,99,0.00,,,-99.99,,2013-05-20 05:12:00,
2013-05-20 00:21:00,60.0,60.0,-100.00,SSE,165,6.0,11.0,99,0.00,,,-99.99,,2013-05-20 05:21:00,
2013-05-20 00:32:00,60.0,60.0,-100.00,South,185,6.0,9.0,99,0.00,,,-99.99,,2013-05-20 05:32:00,
2013-05-20 00:42:00,60.0,60.0,-100.00,South,185,6.0,9.0,99,0.00,,,-99.99,,2013-05-20 05:42:00,
2013-05-20 00:51:00,60.0,60.0,-100.00,SSE,155,3.0,9.0,99,0.00,,,-99.99,,2013-05-20 05:51:00,
2013-05-20 01:01:00,60.0,60.0,-100.00,NNW,340,1.0,7.0,99,0.00,,,-99.99,,2013-05-20 06:01:00,
2013-05-20 01:11:00,60.0,60.0,-100.00,ESE,115,3.0,7.0,99,0.00,,,-99.99,,2013-05-20 06:11:00,
2013-05-20 01:21:00,60.0,60.0,-100.00,ESE,115,3.0,7.0,99,0.00,,,-99.99,,2013-05-20 06:21:00,
2013-05-20 01:32:00,60.0,60.0,-100.00,SE,140,2.0,9.0,99,0.00,,,-99.99,,2013-05-20 06:32:00,
2013-05-20 01:41:00,60.0,60.0,-100.00,SE,140,2.0,9.0,99,0.00,,,-99.99,,2013-05-20 06:41:00,
2013-05-20 01:52:00,60.0,60.0,-100.00,ESE,120,6.0,9.0,99,0.00,,,-99.99,,2013-05-20 06:52:00,
2013-05-20 02:02:00,60.0,60.0,-100.00,ESE,120,6.0,9.0,99,0.00,,,-99.99,,2013-05-20 07:02:00,
2013-05-20 02:12:00,60.0,60.0,-100.00,ESE,110,6.0,10.0,99,0.00,,,-99.99,,2013-05-20 07:12:00,
2013-05-20 02:21:00,60.0,60.0,-100.00,ESE,120,7.0,13.0,99,0.00,,,-99.99,,2013-05-20 07:21:00,
2013-05-20 02:32:00,60.0,60.0,-100.00,SSE,160,6.0,12.0,99,0.00,,,-99.99,,2013-05-20 07:32:00,
2013-05-20 02:42:00,60.0,60.0,-100.00,South,175,5.0,13.0,99,0.00,,,-99.99,,2013-05-20 07:42:00,
2013-05-20 02:52:00,60.0,60.0,-100.00,South,170,4.0,10.0,99,0.00,,,-99.99,,2013-05-20 07:52:00,
2013-05-20 03:01:00,60.0,60.0,-100.00,SSE,150,6.0,12.0,99,0.00,,,-99.99,,2013-05-20 08:01:00,
2013-05-20 03:11:00,60.0,60.0,-100.00,SSE,155,6.0,12.0,99,0.00,,,-99.99,,2013-05-20 08:11:00,
2013-05-20 03:21:00,60.0,60.0,-100.00,SSE,160,4.0,14.0,99,0.00,,,-99.99,,2013-05-20 08:21:00,
2013-05-20 03:32:00,60.0,60.0,-100.00,SSE,160,6.0,13.0,99,0.00,,,-99.99,,2013-05-20 08:32:00,
2013-05-20 03:41:00,60.0,60.0,-100.00,SSE,160,6.0,13.0,99,0.00,,,-99.99,,2013-05-20 08:41:00,
2013-05-20 03:51:00,60.0,60.0,-100.00,SSE,165,7.0,11.0,99,0.00,,,-99.99,,2013-05-20 08:51:00,
2013-05-20 04:02:00,60.0,60.0,-100.00,SSE,165,7.0,11.0,99,0.00,,,-99.99,,2013-05-20 09:02:00,
2013-05-20 04:12:00,60.0,60.0,-100.00,South,175,9.0,14.0,99,0.00,,,-99.99,,2013-05-20 09:12:00,
2013-05-20 04:21:00,60.0,60.0,-100.00,South,190,7.0,12.0,99,0.00,,,-99.99,,2013-05-20 09:21:00,
2013-05-20 04:32:00,60.0,60.0,-100.00,SSW,195,7.0,12.0,99,0.00,,,-99.99,,2013-05-20 09:32:00,
2013-05-20 04:43:00,60.0,60.0,-100.00,SSE,165,8.0,12.0,99,0.00,,,-99.99,,2013-05-20 09:43:00,
2013-05-20 04:52:00,60.0,60.0,-100.00,SSE,165,8.0,12.0,99,0.00,,,-99.99,,2013-05-20 09:52:00,
2013-05-20 05:03:00,60.0,59.0,-100.00,South,175,6.0,13.0,99,0.00,,,-99.99,,2013-05-20 10:03:00,
2013-05-20 05:12:00,59.0,59.0,-100.00,South,180,6.0,12.0,99,0.00,,,-99.99,,2013-05-20 10:12:00,
2013-05-20 05:22:00,59.0,59.0,-100.00,South,180,6.0,12.0,99,0.00,,,-99.99,,2013-05-20 10:22:00,
2013-05-20 05:32:00,60.0,59.0,-100.00,South,180,7.0,15.0,97,0.00,,,-99.99,,2013-05-20 10:32:00,
2013-05-20 05:42:00,60.0,59.0,-100.00,South,180,7.0,15.0,97,0.00,,,-99.99,,2013-05-20 10:42:00,
2013-05-20 05:52:00,60.0,59.0,-100.00,South,175,9.0,14.0,96,0.00,,,-99.99,,2013-05-20 10:52:00,
2013-05-20 06:02:00,60.0,59.0,-100.00,South,175,9.0,14.0,96,0.00,,,-99.99,,2013-05-20 11:02:00,
2013-05-20 06:12:00,60.0,58.0,-100.00,SSW,195,7.0,11.0,95,0.00,,,-99.99,,2013-05-20 11:12:00,
2013-05-20 06:21:00,60.0,58.0,-100.00,South,170,6.0,11.0,95,0.00,,,-99.99,,2013-05-20 11:21:00,
2013-05-20 06:32:00,60.0,58.0,-100.00,South,180,7.0,12.0,93,0.00,,,-99.99,,2013-05-20 11:32:00,
2013-05-20 06:42:00,61.0,58.0,-100.00,South,175,6.0,13.0,91,0.00,,,-99.99,,2013-05-20 11:42:00,
2013-05-20 06:51:00,61.0,58.0,-100.00,South,185,7.0,12.0,90,0.00,,,-99.99,,2013-05-20 11:51:00,
2013-05-20 07:01:00,61.0,58.0,-100.00,South,185,7.0,12.0,90,0.00,,,-99.99,,2013-05-20 12:01:00,
2013-05-20 07:11:00,61.0,58.0,-100.00,SSE,165,7.0,12.0,90,0.00,,,-99.99,,2013-05-20 12:11:00,
2013-05-20 07:21:00,62.0,59.0,-100.00,South,180,6.0,12.0,89,0.00,,,-99.99,,2013-05-20 12:21:00,
2013-05-20 07:32:00,62.0,59.0,-100.00,SSE,165,6.0,14.0,89,0.00,,,-99.99,,2013-05-20 12:32:00,
2013-05-20 07:41:00,62.0,59.0,-100.00,SSE,165,6.0,14.0,89,0.00,,,-99.99,,2013-05-20 12:41:00,
2013-05-20 07:52:00,64.0,60.0,-100.00,East,90,7.0,10.0,87,0.00,,,-99.99,,2013-05-20 12:52:00,
2013-05-20 08:01:00,64.0,59.0,-100.00,SSW,195,9.0,14.0,84,0.00,,,-99.99,,2013-05-20 13:01:00,
2013-05-20 08:11:00,65.0,59.0,-100.00,South,185,9.0,15.0,81,0.00,,,-99.99,,2013-05-20 13:11:00,
2013-05-20 08:22:00,65.0,59.0,-100.00,South,185,9.0,15.0,81,0.00,,,-99.99,,2013-05-20 13:22:00,
2013-05-20 08:31:00,65.0,58.0,-100.00,SSE,155,9.0,17.0,78,0.00,,,-99.99,,2013-05-20 13:31:00,
2013-05-20 08:41:00,66.0,57.0,-100.00,South,175,12.0,21.0,74,0.00,,,-99.99,,2013-05-20 13:41:00,
2013-05-20 08:52:00,66.0,57.0,-100.00,South,185,10.0,18.0,72,0.00,,,-99.99,,2013-05-20 13:52:00,
2013-05-20 09:01:00,66.0,57.0,-100.00,South,185,10.0,18.0,72,0.00,,,-99.99,,2013-05-20 14:01:00,
2013-05-20 09:11:00,66.0,57.0,-100.00,SSW,195,9.0,21.0,71,0.00,,,-99.99,,2013-05-20 14:11:00,
2013-05-20 09:22:00,66.0,56.0,-100.00,East,95,13.0,23.0,71,0.00,,,-99.99,,2013-05-20 14:22:00,
2013-05-20 09:32:00,67.0,57.0,-100.00,East,85,12.0,24.0,72,0.00,,,-99.99,,2013-05-20 14:32:00,
2013-05-20 09:41:00,66.0,57.0,-100.00,SW,220,12.0,26.0,72,0.00,,,-99.99,,2013-05-20 14:41:00,
2013-05-20 09:52:00,68.0,58.0,-100.00,SE,145,13.0,23.0,71,0.00,,,-99.99,,2013-05-20 14:52:00,
2013-05-20 10:01:00,68.0,58.0,-100.00,SE,145,13.0,23.0,71,0.00,,,-99.99,,2013-05-20 15:01:00,
2013-05-20 10:11:00,67.0,57.0,-100.00,SSE,160,13.0,23.0,72,0.00,,,-99.99,,2013-05-20 15:11:00,
2013-05-20 10:21:00,67.0,58.0,-100.00,ENE,65,16.0,28.0,72,0.00,,,-99.99,,2013-05-20 15:21:00,
2013-05-20 10:33:00,68.0,58.0,-100.00,East,85,14.0,28.0,71,0.00,,,-99.99,,2013-05-20 15:33:00,
2013-05-20 10:42:00,68.0,58.0,-100.00,East,85,14.0,28.0,71,0.00,,,-99.99,,2013-05-20 15:42:00,
2013-05-20 10:53:00,68.0,58.0,-100.00,SE,125,14.0,24.0,70,0.00,,,-99.99,,2013-05-20 15:53:00,
2013-05-20 11:03:00,68.0,58.0,-100.00,ESE,115,14.0,25.0,69,0.00,,,-99.99,,2013-05-20 16:03:00,
2013-05-20 11:12:00,68.0,58.0,-100.00,ESE,115,14.0,25.0,69,0.00,,,-99.99,,2013-05-20 16:12:00,
2013-05-20 11:22:00,68.0,58.0,-100.00,SW,225,11.0,21.0,70,0.00,,,-99.99,,2013-05-20 16:22:00,
2013-05-20 11:33:00,68.0,58.0,-100.00,ESE,110,12.0,22.0,71,0.00,,,-99.99,,2013-05-20 16:33:00,
2013-05-20 11:42:00,68.0,58.0,-100.00,SW,230,12.0,24.0,69,0.00,,,-99.99,,2013-05-20 16:42:00,
2013-05-20 11:53:00,69.0,59.0,-100.00,SW,230,9.0,21.0,70,0.00,,,-99.99,,2013-05-20 16:53:00,
2013-05-20 12:02:00,69.0,59.0,-100.00,SW,230,9.0,21.0,70,0.00,,,-99.99,,2013-05-20 17:02:00,
2013-05-20 12:12:00,69.0,59.0,-100.00,East,90,11.0,24.0,69,0.00,,,-99.99,,2013-05-20 17:12:00,
2013-05-20 12:22:00,70.0,59.0,-100.00,East,90,11.0,21.0,66,0.00,,,-99.99,,2013-05-20 17:22:00,
2013-05-20 12:33:00,72.0,60.0,-100.00,SSW,195,9.0,21.0,65,0.00,,,-99.99,,2013-05-20 17:33:00,
2013-05-20 12:45:00,72.0,60.0,-100.00,SSW,195,9.0,21.0,65,0.00,,,-99.99,,2013-05-20 17:45:00,
2013-05-20 12:53:00,71.0,58.0,-100.00,ENE,65,11.0,22.0,62,0.00,,,-99.99,,2013-05-20 17:53:00,
2013-05-20 13:02:00,72.0,58.0,-100.00,SSW,195,7.0,21.0,60,0.00,,,-99.99,,2013-05-20 18:02:00,
2013-05-20 13:12:00,73.0,59.0,-100.00,SSW,195,11.0,27.0,60,0.00,,,-99.99,,2013-05-20 18:12:00,
2013-05-20 13:23:00,73.0,59.0,-100.00,SSW,195,11.0,27.0,60,0.00,,,-99.99,,2013-05-20 18:23:00,
2013-05-20 13:32:00,74.0,59.0,-100.00,ENE,60,12.0,19.0,59,0.00,,,-99.99,,2013-05-20 18:32:00,
2013-05-20 13:42:00,74.0,59.0,-100.00,NE,55,9.0,19.0,59,0.00,,,-99.99,,2013-05-20 18:42:00,
2013-05-20 13:55:00,72.0,57.0,-100.00,East,80,9.0,22.0,57,0.00,,,-99.99,,2013-05-20 18:55:00,
2013-05-20 14:04:00,72.0,57.0,-100.00,East,80,9.0,22.0,57,0.00,,,-99.99,,2013-05-20 19:04:00,
2013-05-20 14:11:00,75.0,58.0,-100.00,SSW,210,10.0,18.0,56,0.00,,,-99.99,,2013-05-20 19:11:00,
2013-05-20 14:21:00,74.0,58.0,-100.00,SSW,195,7.0,17.0,57,0.00,,,-99.99,,2013-05-20 19:21:00,
2013-05-20 14:32:00,74.0,57.0,-100.00,NE,50,10.0,24.0,55,0.00,,,-99.99,,2013-05-20 19:32:00,
2013-05-20 14:41:00,75.0,58.0,-100.00,South,190,11.0,21.0,54,0.00,,,-99.99,,2013-05-20 19:41:00,
2013-05-20 14:52:00,73.0,57.0,-100.00,SSW,195,12.0,20.0,57,0.00,,,-99.99,,2013-05-20 19:52:00,
2013-05-20 15:01:00,73.0,57.0,-100.00,SSW,195,12.0,20.0,57,0.00,,,-99.99,,2013-05-20 20:01:00,
2013-05-20 15:12:00,74.0,58.0,-100.00,South,190,10.0,20.0,55,0.00,,,-99.99,,2013-05-20 20:12:00,
2013-05-20 15:21:00,74.0,57.0,-100.00,SSW,195,13.0,21.0,55,0.00,,,-99.99,,2013-05-20 20:21:00,
2013-05-20 15:32:00,74.0,57.0,-100.00,South,190,11.0,17.0,55,0.00,,,-99.99,,2013-05-20 20:32:00,
2013-05-20 15:42:00,74.0,57.0,-100.00,South,190,11.0,17.0,55,0.00,,,-99.99,,2013-05-20 20:42:00,
2013-05-20 15:51:00,74.0,57.0,-100.00,SSW,210,12.0,20.0,55,0.00,,,-99.99,,2013-05-20 20:51:00,
2013-05-20 16:01:00,75.0,58.0,-100.00,ESE,110,9.0,18.0,55,0.00,,,-99.99,,2013-05-20 21:01:00,
2013-05-20 16:11:00,75.0,58.0,-100.00,ESE,110,9.0,18.0,55,0.00,,,-99.99,,2013-05-20 21:11:00,
2013-05-20 16:21:00,76.0,59.0,-100.00,ESE,105,7.0,17.0,55,0.00,,,-99.99,,2013-05-20 21:21:00,
2013-05-20 16:33:00,76.0,59.0,-100.00,West,265,6.0,15.0,55,0.00,,,-99.99,,2013-05-20 21:33:00,
2013-05-20 16:43:00,76.0,59.0,-100.00,SW,235,6.0,13.0,55,0.00,,,-99.99,,2013-05-20 21:43:00,
2013-05-20 16:53:00,78.0,60.0,-100.00,WSW,245,6.0,15.0,54,0.00,,,-99.99,,2013-05-20 21:53:00,
2013-05-20 17:02:00,78.0,60.0,-100.00,WSW,245,6.0,15.0,54,0.00,,,-99.99,,2013-05-20 22:02:00,
2013-05-20 17:12:00,78.0,60.0,-100.00,East,85,8.0,14.0,53,0.00,,,-99.99,,2013-05-20 22:12:00,
2013-05-20 17:23:00,78.0,60.0,-100.00,SSW,200,7.0,11.0,52,0.00,,,-99.99,,2013-05-20 22:23:00,
2013-05-20 17:33:00,78.0,60.0,-100.00,SSW,195,4.0,10.0,53,0.00,,,-99.99,,2013-05-20 22:33:00,
2013-05-20 17:42:00,78.0,60.0,-100.00,SSW,195,4.0,10.0,53,0.00,,,-99.99,,2013-05-20 22:42:00,
2013-05-20 17:52:00,78.0,60.0,-100.00,ESE,110,4.0,11.0,53,0.00,,,-99.99,,2013-05-20 22:52:00,
2013-05-20 18:02:00,78.0,60.0,-100.00,WSW,240,6.0,10.0,55,0.00,,,-99.99,,2013-05-20 23:02:00,
2013-05-20 18:12:00,78.0,62.0,-100.00,WNW,285,9.0,12.0,57,0.00,,,-99.99,,2013-05-20 23:12:00,
2013-05-20 18:22:00,78.0,62.0,-100.00,WNW,285,9.0,12.0,57,0.00,,,-99.99,,2013-05-20 23:22:00,
2013-05-20 18:32:00,76.0,61.0,-100.00,West,270,5.0,15.0,58,0.00,,,-99.99,,2013-05-20 23:32:00,
2013-05-20 18:42:00,76.0,63.0,-100.00,East,95,7.0,16.0,62,0.00,,,-99.99,,2013-05-20 23:42:00,
2013-05-20 18:52:00,72.0,64.0,-100.00,SE,140,3.0,12.0,76,0.00,,,-99.99,,2013-05-20 23:52:00,
2013-05-20 19:01:00,72.0,64.0,-100.00,SE,140,3.0,12.0,76,0.00,,,-99.99,,2013-05-21 00:01:00,
2013-05-20 19:11:00,71.0,65.0,-100.00,SSW,195,6.0,9.0,80,32.25,,,-99.99,,2013-05-21 00:11:00,
2013-05-20 19:21:00,69.0,65.0,-100.00,South,185,4.0,9.0,86,0.00,,,-99.99,,2013-05-21 00:21:00,
2013-05-20 19:32:00,68.0,64.0,-100.00,SSE,150,2.0,15.0,86,0.00,,,-99.99,,2013-05-21 00:32:00,
2013-05-20 19:42:00,68.0,65.0,-100.00,SSE,150,6.0,16.0,89,0.00,,,-99.99,,2013-05-21 00:42:00,
2013-05-20 19:52:00,68.0,64.0,-100.00,SSW,195,6.0,15.0,87,0.00,,,-99.99,,2013-05-21 00:52:00,
2013-05-20 20:01:00,68.0,64.0,-100.00,SSW,195,6.0,15.0,87,0.00,,,-99.99,,2013-05-21 01:01:00,
2013-05-20 20:11:00,67.0,62.0,-100.00,South,190,9.0,14.0,82,0.00,,,-99.99,,2013-05-21 01:11:00,
2013-05-20 20:21:00,67.0,62.0,-100.00,WSW,240,7.0,11.0,82,0.00,,,-99.99,,2013-05-21 01:21:00,
2013-05-20 20:32:00,67.0,61.0,-100.00,South,190,5.0,11.0,82,0.00,,,-99.99,,2013-05-21 01:32:00,
2013-05-20 20:42:00,67.0,61.0,-100.00,South,190,5.0,11.0,82,0.00,,,-99.99,,2013-05-21 01:42:00,
2013-05-20 20:52:00,66.0,61.0,-100.00,South,190,3.0,7.0,86,0.00,,,-99.99,,2013-05-21 01:52:00,
2013-05-20 21:02:00,65.0,62.0,-100.00,South,175,3.0,7.0,88,0.00,,,-99.99,,2013-05-21 02:02:00,
2013-05-20 21:11:00,65.0,62.0,-100.00,South,175,3.0,7.0,88,0.00,,,-99.99,,2013-05-21 02:11:00,
2013-05-20 21:21:00,64.0,62.0,-100.00,SSE,165,4.0,7.0,91,0.00,,,-99.99,,2013-05-21 02:21:00,
2013-05-20 21:32:00,64.0,62.0,-100.00,South,175,2.0,6.0,92,0.00,,,-99.99,,2013-05-21 02:32:00,
2013-05-20 21:42:00,64.0,62.0,-100.00,SSE,155,2.0,4.0,93,0.00,,,-99.99,,2013-05-21 02:42:00,
2013-05-20 21:52:00,64.0,62.0,-100.00,South,190,2.0,6.0,94,0.00,,,-99.99,,2013-05-21 02:52:00,
2013-05-20 22:02:00,64.0,62.0,-100.00,South,190,2.0,6.0,94,0.00,,,-99.99,,2013-05-21 03:02:00,
2013-05-20 22:11:00,63.0,62.0,-100.00,SSE,155,2.0,4.0,95,0.00,,,-99.99,,2013-05-21 03:11:00,
2013-05-20 22:21:00,63.0,62.0,-100.00,South,175,2.0,6.0,95,0.00,,,-99.99,,2013-05-21 03:21:00,
2013-05-20 22:33:00,63.0,62.0,-100.00,South,175,2.0,6.0,95,0.00,,,-99.99,,2013-05-21 03:33:00,
2013-05-20 22:43:00,63.0,62.0,-100.00,SSW,195,3.0,6.0,96,0.00,,,-99.99,,2013-05-21 03:43:00,
2013-05-20 22:53:00,63.0,62.0,-100.00,South,180,2.0,6.0,96,0.00,,,-99.99,,2013-05-21 03:53:00,
2013-05-20 23:03:00,63.0,62.0,-100.00,South,180,2.0,6.0,96,0.00,,,-99.99,,2013-05-21 04:03:00,
2013-05-20 23:13:00,62.0,61.0,-100.00,South,170,2.0,4.0,96,0.00,,,-99.99,,2013-05-21 04:13:00,
2013-05-20 23:23:00,62.0,61.0,-100.00,South,185,2.0,4.0,96,0.00,,,-99.99,,2013-05-21 04:23:00,
2013-05-20 23:33:00,62.0,61.0,-100.00,SE,140,1.0,3.0,97,0.00,,,-99.99,,2013-05-21 04:33:00,
2013-05-20 23:42:00,62.0,61.0,-100.00,SE,140,1.0,3.0,97,0.00,,,-99.99,,2013-05-21 04:42:00,
2013-05-20 23:52:00,62.0,62.0,-100.00,SSE,160,1.0,3.0,97,0.00,,,-99.99,,2013-05-21 04:52:00,